Regional Weather Roundup
Issued by NWS

Home | Current Version | Previous Version | Text Only | Print | Product List | Glossary On
Versions: 1 2 3 4 5 6 7 8 9 10 11 12 13 14 15 16 17 18 19 20 21 22 23 24 25 26 27 28 29 30 31 32 33 34 35 36 37 38 39 40 41 42 43 44 45 46 47 48 49 50
979
ASUS43 KOAX 252103
RWRNE

WEATHER ROUNDUP FOR NEBRASKA
NATIONAL WEATHER SERVICE OMAHA NE
400 PM CDT FRI MAY 25 2018

NOTES: SATELLITE DATA IS BEING USED TO AUGMENT CLOUD COVER ABOVE
       12000 FEET.
       "FAIR" INDICATES FEW OR NO CLOUDS BELOW 12,000 FEET WITH NO
       SIGNIFICANT WEATHER AND/OR OBSTRUCTIONS TO VISIBILITY.


NEZ001>004-019>022-054>056-252200-
NEBRASKA PANHANDLE

CITY           SKY/WX    TMP DP  RH WIND       PRES   REMARKS
SCOTTSBLUFF    SUNNY     87  48  25 W5        29.95F
ALLIANCE       SUNNY     86  48  26 W10       29.94F
CHADRON        SUNNY     85  50  29 W10       29.91F
SIDNEY         MOSUNNY   89  38  16 W12       29.99F
$$

NEZ057>060-069>072-079>082-252200-
SOUTHWEST NEBRASKA

CITY           SKY/WX    TMP DP  RH WIND       PRES   REMARKS
NORTH PLATTE   SUNNY     90  57  32 N10       29.87F
IMPERIAL       SUNNY     96  33  11 VRB6      29.91F HX  91
MCCOOK         MOSUNNY   86  56  35 W6        29.87F
$$

NEZ005>010-023>029-035>040-094-252200-
NORTH CENTRAL NEBRASKA

CITY           SKY/WX    TMP DP  RH WIND       PRES   REMARKS
VALENTINE      SUNNY     90  55  30 NW10G20   29.85F
BROKEN BOW     SUNNY     93  50  23 NW7       29.84F HX  90
ORD            SUNNY     91  61  36 VRB5      29.80F HX  91
$$

NEZ041-046>049-061>064-073>077-083>087-252200-
SOUTH CENTRAL NEBRASKA

CITY           SKY/WX    TMP DP  RH WIND       PRES   REMARKS
GRAND ISLAND   SUNNY     94  52  24 S7        29.82F HX  91
HASTINGS       SUNNY     91  57  31 VRB5      29.83F
KEARNEY        SUNNY     93  55  27 W9        29.84F HX  91
$$

NEZ011>018-030>034-042>045-252200-
NORTHEAST NEBRASKA

CITY           SKY/WX    TMP DP  RH WIND       PRES   REMARKS
COLUMBUS       SUNNY     94  58  29 SW9       29.78  HX  93
TEKAMAH        MOSUNNY   91  60  35 SE3       29.74F HX  90
$$

NEZ050>053-065>068-078-088>093-252200-
SOUTHEAST NEBRASKA

CITY           SKY/WX    TMP DP  RH WIND       PRES   REMARKS
LINCOLN        SUNNY     95  53  24 SW13G24   29.77F HX  92
OMAHA EPPLEY   MOSUNNY   93  56  28 CALM      29.74F HX  91
FALLS CITY     SUNNY     92  56  29 W10       29.78F HX  90
NEBRASKA CITY  SUNNY     91  60  35 W8G16     29.79F HX  91
$$

NEZ044-045-051>053-067-252200-
OMAHA AREA

CITY           SKY/WX    TMP DP  RH WIND       PRES   REMARKS
OMAHA EPPLEY   MOSUNNY   93  56  28 CALM      29.74F HX  91
OFFUTT AFB     MOSUNNY   93  58  30 SW7       29.74F HX  92
$$




USA.gov is the U.S. government's official web portal to all federal, state and local government web resources and services.